Location: B
(0.0000°N, 0.0000°E)
Time: 10:57:20
(UTC+01:00)

Cosmos 1025 Rocket - Visible Passes

Search period start: 26 November 2014 00:00
Search period end: 06 December 2014 00:00
Orbit: 596 x 620 km, 82.5° (Epoch: 25 November)

Date Brightness Start Highest point End Pass type
(mag) Time Alt. Az. Time Alt. Az. Time Alt. Az.
27 Nov 5.7 19:18:36 10° SW 19:22:05 23° W 19:25:34 10° NNW visible
28 Nov 5.9 05:48:43 10° NE 05:51:37 18° E 05:54:30 10° SE visible
28 Nov 6.3 19:34:30 10° WSW 19:35:54 11° W 19:37:19 10° WNW visible
29 Nov 4.7 06:01:31 10° NNE 06:05:25 36° E 06:09:21 10° SSE visible
30 Nov 3.2 06:15:00 10° N 06:19:14 79° E 06:23:30 10° S visible
02 Dec 6.1 05:07:50 10° ENE 05:09:32 12° E 05:11:14 10° ESE visible
03 Dec 5.2 05:19:51 10° NNE 05:23:21 25° E 05:26:51 10° SE visible
04 Dec 3.8 05:33:01 10° N 05:37:09 52° E 05:41:18 10° SSE visible
05 Dec 2.9 05:46:44 10° N 05:50:58 72° W 05:55:13 10° S visible
